Location: Artiguedieu
(43.5000°N, 0.5454°E)
Time: 13:08:03
(UTC+00:00)

CZ-2C R/B - Pass Details

Date: 06 December 2020
Orbit: 390 x 585 km, 35.0° (Epoch: 27 January)

Event Time Altitude Azimuth Distance (km) Brightness Sun altitude
Exits shadow 06:21:39 - 244° (WSW) 1,887 3.7 -9.7°
Reaches altitude 10° 06:22:58 10° 231° (SW) 1,467 3.2 -9.5°
Maximum altitude 06:25:14 17° 187° (S) 1,083 3.0 -9.1°
Drops below altitude 10° 06:27:28 10° 143° (SE) 1,426 4.5 -8.7°
Sets 06:29:58 0° 123° (ESE) 2,268 6.6 -8.3°
